Location: El Manguito
(10.2358°N, 67.3634°W)
Time: 14:06:58
(UTC+00:00)

Aurora 2 Rocket - Pass Details

Date: 10 September 2024
Orbit: 386 x 1609 km, 25.0° (Epoch: 10 October)

Event Time Altitude Azimuth Distance (km) Brightness Sun altitude
Rises 23:22:31 0° 312° (NW) 2,426 6.6 -13.0°
Reaches altitude 10° 23:24:46 10° 328° (NNW) 1,668 5.3 -13.6°
Maximum altitude 23:27:52 23° 23° (NNE) 1,211 3.9 -14.3°
Enters shadow 23:29:56 17° 60° (ENE) 1,572 4.2 -14.8°
